[ hide orbit diagram ]
For accurate long-term ephemerides, please instead use our Horizons system.This orbit viewer was implemented using two-body methods, and hence should not be used for determining accurate long-term trajectories (over several years or decades) or planetary encounter circumstances.
Orbital Elements at Epoch 2459000.5 (2020-May-31.0) TDB
Reference: JPL 11 (heliocentric ecliptic J2000)
Element | Value | Uncertainty (1-sigma) | Units |
e | .1851524325873693 | 1.1165e-07 | |
a | 5.222737143026294 | 3.4314e-07 | au |
q | 4.255734656230569 | 7.9515e-07 | au |
i | 24.41680735053921 | 8.4987e-06 | deg |
node | 237.3826555795885 | 2.5394e-05 | deg |
peri | 203.8986808613147 | 4.7296e-05 | deg |
M | 268.1862791693143 | 5.3977e-05 | deg |
tp | 2460112.361691011871 (2023-Jun-16.86169101) | 0.00075095 | TDB |
period | 4359.590322043639 11.94 | 0.00042964 1.176e-06 | d yr |
n | .08257656646765911 | 8.138e-09 | deg/d |
Q | 6.18973962982202 | 4.0667e-07 | au |
|
| | Orbit Determination Parameters
Additional Information
|
[ show covariance matrix ]
Physical Parameter Table
Parameter |
Symbol |
Value |
Units |
Sigma |
Reference |
Notes |
absolute magnitude |
H |
12.9 |
|
n/a |
MPO476405 |
|
rotation period |
rot_per |
8.419 |
h |
n/a |
LCDB (Rev. 2020-October); Warner et al., 2009 |
Result based on less than full coverage, so that the period may be wrong by 30 percent or so. Published Reference List: [Waszczak, A.; Chang, C.-K.; Ofeck, E.O.; Laher, F.; et al. (2015) Astron. J. 150, A75.] |
|
312779 (2010 VY33) Discovered 2009-Jul-29 by Spacewatch at Kitt Peak |
Reference: 20120109/Numbers.arc | Last Updated: 2012-01-11 |
|
|